This is the latest recevied weather packets stored in our database for station/object DH1FR-13. If no packets are shown the sender has not sent any weather packets the latest 10 day(s).
| Time | Temp. | Humidity | Pressure | Rain* | Wind** | Luminosity | Snow |
|---|---|---|---|---|---|---|---|
| 1787745000 | 18.89° C | 82% | 1021.2 hPa | 0.25 mm | 0 m/s | - | - |
| 1787744400 | 18.89° C | 84% | 1021 hPa | 0.25 mm | 0 m/s | - | - |
| 1787743801 | 18.89° C | 83% | 1021.1 hPa | 0.25 mm | 0 m/s | - | - |
| 1787743201 | 18.89° C | 84% | 1021.1 hPa | 0.25 mm | 0 m/s | - | - |
| 1787742601 | 18.33° C | 84% | 1021 hPa | 0.25 mm | 0 m/s | - | - |
| 1787742000 | 18.89° C | 84% | 1020.9 hPa | 0.25 mm | 0 m/s | - | - |
| 1787741400 | 18.89° C | 86% | 1021 hPa | 0.25 mm | 0 m/s | - | - |
| 1787740801 | 18.33° C | 86% | 1020.9 hPa | 0.25 mm | 0 m/s | - | - |
| 1787740200 | 18.33° C | 86% | 1021 hPa | 0.25 mm | 0 m/s | - | - |
| 1787739601 | 18.33° C | 86% | 1021 hPa | 0.25 mm | 0 m/s | - | - |
| 1787739000 | 17.78° C | 88% | 1021 hPa | 0.25 mm | 0 m/s | - | - |
| 1787738401 | 17.78° C | 87% | 1021.2 hPa | 0.25 mm | 0 m/s | - | - |
| 1787737800 | 17.78° C | 87% | 1021.1 hPa | 0.25 mm | 0 m/s | - | - |
| 1787737200 | 17.78° C | 90% | 1021 hPa | 0.25 mm | 0 m/s | - | - |
| 1787736601 | 17.78° C | 91% | 1021.1 hPa | 0.25 mm | 0 m/s | - | - |
| 1787736001 | 17.22° C | 91% | 1021.2 hPa | 0.25 mm | 0 m/s | - | - |
| 1787735400 | 16.67° C | 92% | 1021.1 hPa | 0.25 mm | 0 m/s | - | - |
| 1787734801 | 17.22° C | 93% | 1021 hPa | 0.25 mm | 0 m/s | - | - |
| 1787734200 | 16.67° C | 94% | 1020.8 hPa | 0.25 mm | 0 m/s | - | - |
| 1787733601 | 16.67° C | 95% | 1020.8 hPa | 0.25 mm | 0 m/s | - | - |
| 1787733000 | 16.11° C | 96% | 1021 hPa | 0.25 mm | 0 m/s | - | - |
| 1787732401 | 16.11° C | 97% | 1020.8 hPa | 0.25 mm | 0 m/s | - | - |
| 1787731800 | 15.56° C | 97% | 1020.6 hPa | 0.25 mm | 0 m/s | - | - |
| 1787731201 | 15.56° C | 98% | 1020.5 hPa | 0.25 mm | 0 m/s | - | - |
| 1787730601 | 15.56° C | 98% | 1020.5 hPa | 0.25 mm | 0 m/s | - | - |
* Rain latest hour (hover to see other rain measurements)
** Current wind speed in m/s (hover to see current wind gust speed)